| time (UTC) | temp F | wind direction | speed knots | gust knots | rain 1hr in | rain 24hr in | rain mn in | humidity % | barometer mb |
| 20260906214513 | 87 | 18 | 5.2 | 0.0 | 0.00 | 0.00 | 0.00 | 48 | 1008.0 |
| 20260906214012 | 87 | 5 | 6.1 | 0.0 | 0.00 | 0.00 | 0.00 | 49 | 1008.0 |
| 20260906213512 | 87 | 344 | 7.0 | 0.0 | 0.00 | 0.00 | 0.00 | 49 | 1008.1 |
| 20260906213011 | 87 | 348 | 7.0 | 0.0 | 0.00 | 0.00 | 0.00 | 50 | 1008.0 |
| 20260906212612 | 87 | 355 | 7.0 | 0.0 | 0.00 | 0.00 | 0.00 | 51 | 1008.3 |
| 20260906212010 | 86 | 355 | 6.1 | 0.0 | 0.00 | 0.00 | 0.00 | 52 | 1008.2 |
| 20260906211508 | 85 | 305 | 5.2 | 0.0 | 0.00 | 0.00 | 0.00 | 53 | 1008.3 |
| 20260906211008 | 86 | 328 | 6.1 | 0.0 | 0.00 | 0.00 | 0.00 | 51 | 1008.5 |
| 20260906210509 | 86 | 34 | 7.0 | 0.0 | 0.00 | 0.00 | 0.00 | 53 | 1008.6 |
| 20260906205505 | 84 | 303 | 6.1 | 0.0 | 0.00 | 0.00 | 0.00 | 55 | 1008.8 |
| 20260906205002 | 85 | 325 | 6.1 | 0.0 | 0.00 | 0.00 | 0.00 | 54 | 1009.0 |
| 20260906204504 | 85 | 360 | 6.1 | 0.0 | 0.00 | 0.00 | 0.00 | 55 | 1009.1 |
| 20260906204002 | 84 | 5 | 5.2 | 0.0 | 0.00 | 0.00 | 0.00 | 56 | 1009.1 |
| 20260906203600 | 84 | 321 | 4.3 | 0.0 | 0.00 | 0.00 | 0.00 | 56 | 1009.2 |
| 20260906203100 | 84 | 312 | 3.5 | 0.0 | 0.00 | 0.00 | 0.00 | 56 | 1009.2 |
| 20260906202558 | 84 | 325 | 3.5 | 0.0 | 0.00 | 0.00 | 0.00 | 57 | 1009.2 |
| 20260906202057 | 83 | 326 | 3.5 | 0.0 | 0.00 | 0.00 | 0.00 | 57 | 1009.2 |
| 20260906201601 | 83 | 288 | 3.5 | 0.0 | 0.00 | 0.00 | 0.00 | 57 | 1009.3 |
| 20260906201056 | 82 | 18 | 3.5 | 0.0 | 0.00 | 0.00 | 0.00 | 58 | 1009.4 |
| 20260906200558 | 82 | 279 | 5.2 | 0.0 | 0.00 | 0.00 | 0.00 | 61 | 1009.4 |
| 20260906200056 | 82 | 324 | 6.1 | 0.0 | 0.00 | 0.00 | 0.00 | 60 | 1009.5 |
| 20260906195556 | 82 | 301 | 6.1 | 0.0 | 0.00 | 0.00 | 0.00 | 59 | 1009.4 |
| 20260906195054 | 83 | 254 | 6.1 | 0.0 | 0.00 | 0.00 | 0.00 | 59 | 1009.5 |
| 20260906194553 | 82 | 331 | 6.1 | 0.0 | 0.00 | 0.00 | 0.00 | 60 | 1009.5 |
| 20260906194054 | 81 | 331 | 6.1 | 0.0 | 0.00 | 0.00 | 0.00 | 62 | 1009.6 |
| 20260906193551 | 81 | 324 | 6.1 | 0.0 | 0.00 | 0.00 | 0.00 | 63 | 1009.7 |
| 20260906193051 | 81 | 325 | 6.1 | 0.0 | 0.00 | 0.00 | 0.00 | 63 | 1009.8 |
| 20260906192555 | 81 | 342 | 5.2 | 0.0 | 0.00 | 0.00 | 0.00 | 63 | 1009.8 |
| 20260906192050 | 81 | 322 | 5.2 | 0.0 | 0.00 | 0.00 | 0.00 | 64 | 1009.9 |
| 20260906191600 | 81 | 306 | 4.3 | 0.0 | 0.00 | 0.00 | 0.00 | 65 | 1009.8 |
| 20260906191051 | 80 | 318 | 5.2 | 0.0 | 0.00 | 0.00 | 0.00 | 66 | 1009.9 |
| 20260906190552 | 80 | 350 | 6.1 | 0.0 | 0.00 | 0.00 | 0.00 | 66 | 1010.0 |
| 20260906190049 | 80 | 261 | 6.1 | 0.0 | 0.00 | 0.00 | 0.00 | 66 | 1009.9 |
| 20260906185547 | 79 | 332 | 5.2 | 0.0 | 0.00 | 0.00 | 0.00 | 68 | 1010.2 |
| 20260906185048 | 80 | 341 | 6.1 | 0.0 | 0.00 | 0.00 | 0.00 | 67 | 1010.3 |
| 20260906184556 | 80 | 319 | 5.2 | 0.0 | 0.00 | 0.00 | 0.00 | 67 | 1010.3 |
| 20260906184048 | 80 | 290 | 3.5 | 0.0 | 0.00 | 0.00 | 0.00 | 66 | 1010.3 |
| 20260906183546 | 80 | 209 | 3.5 | 0.0 | 0.00 | 0.00 | 0.00 | 66 | 1010.4 |
| 20260906183047 | 79 | 290 | 2.6 | 0.0 | 0.00 | 0.00 | 0.00 | 66 | 1010.4 |
| 20260906182547 | 79 | 259 | 2.6 | 0.0 | 0.00 | 0.00 | 0.00 | 69 | 1010.6 |
| 20260906182046 | 78 | 300 | 2.6 | 0.0 | 0.00 | 0.00 | 0.00 | 69 | 1010.6 |
| 20260906181542 | 78 | 207 | 4.3 | 0.0 | 0.00 | 0.00 | 0.00 | 69 | 1010.6 |
| 20260906181041 | 78 | 217 | 3.5 | 0.0 | 0.00 | 0.00 | 0.00 | 70 | 1010.6 |
| 20260906180542 | 77 | 259 | 3.5 | 0.0 | 0.00 | 0.00 | 0.00 | 72 | 1010.7 |
| 20260906180056 | 77 | 271 | 2.6 | 0.0 | 0.00 | 0.00 | 0.00 | 72 | 1010.7 |
| 20260906175542 | 76 | 252 | 1.7 | 0.0 | 0.00 | 0.00 | 0.00 | 73 | 1010.8 |
| 20260906175040 | 76 | 249 | 2.6 | 0.0 | 0.00 | 0.00 | 0.00 | 74 | 1010.7 |
| 20260906174539 | 75 | 315 | 2.6 | 0.0 | 0.00 | 0.00 | 0.00 | 75 | 1010.7 |
| 20260906174036 | 75 | 252 | 2.6 | 0.0 | 0.00 | 0.00 | 0.00 | 76 | 1010.6 |
| 20260906173537 | 74 | 107 | 2.6 | 0.0 | 0.00 | 0.00 | 0.00 | 78 | 1010.7 |
| 20260906173038 | 74 | 259 | 3.5 | 0.0 | 0.00 | 0.00 | 0.00 | 78 | 1010.7 |
| 20260906172536 | 73 | 238 | 3.5 | 0.0 | 0.00 | 0.00 | 0.00 | 80 | 1010.7 |
| 20260906172033 | 73 | 245 | 3.5 | 0.0 | 0.00 | 0.00 | 0.00 | 80 | 1010.7 |
| 20260906171533 | 74 | 257 | 2.6 | 0.0 | 0.00 | 0.00 | 0.00 | 80 | 1010.8 |
| 20260906171033 | 73 | 312 | 2.6 | 0.0 | 0.00 | 0.00 | 0.00 | 81 | 1011.0 |
| 20260906170532 | 73 | 276 | 3.5 | 0.0 | 0.00 | 0.00 | 0.00 | 82 | 1010.8 |
| 20260906170031 | 72 | 248 | 3.5 | 0.0 | 0.00 | 0.00 | 0.00 | 82 | 1010.7 |
| 20260906165531 | 72 | 350 | 2.6 | 0.0 | 0.00 | 0.00 | 0.00 | 83 | 1010.5 |
| 20260906165033 | 71 | 329 | 1.7 | 0.0 | 0.00 | 0.00 | 0.00 | 85 | 1010.9 |
| 20260906164530 | 70 | 5 | 2.6 | 0.0 | 0.00 | 0.00 | 0.00 | 86 | 1010.6 |
| 20260906164031 | 70 | 258 | 4.3 | 0.0 | 0.00 | 0.00 | 0.00 | 86 | 1010.7 |
| 20260906163530 | 69 | 42 | 5.2 | 0.0 | 0.00 | 0.00 | 0.00 | 87 | 1010.4 |
| 20260906163030 | 69 | 83 | 5.2 | 0.0 | 0.00 | 0.00 | 0.00 | 87 | 1010.8 |
| 20260906162533 | 69 | 77 | 5.2 | 0.0 | 0.00 | 0.00 | 0.00 | 89 | 1010.7 |
| 20260906162029 | 69 | 61 | 5.2 | 0.0 | 0.00 | 0.00 | 0.00 | 89 | 1010.7 |
| 20260906161529 | 68 | 327 | 6.1 | 0.0 | 0.00 | 0.00 | 0.00 | 90 | 1010.4 |
| 20260906161032 | 68 | 23 | 7.0 | 0.0 | 0.00 | 0.00 | 0.00 | 89 | 1010.6 |
| 20260906160529 | 68 | 5 | 6.1 | 0.0 | 0.00 | 0.00 | 0.00 | 90 | 1010.5 |
| 20260906160031 | 68 | 29 | 6.1 | 0.0 | 0.00 | 0.00 | 0.00 | 90 | 1010.6 |
| 20260906155529 | 68 | 57 | 6.1 | 0.0 | 0.00 | 0.00 | 0.00 | 90 | 1010.6 |
| 20260906155028 | 68 | 43 | 5.2 | 0.0 | 0.00 | 0.00 | 0.00 | 91 | 1010.3 |
| 20260906154530 | 67 | 37 | 5.2 | 0.0 | 0.00 | 0.00 | 0.00 | 92 | 1010.4 |
| 20260906154031 | 67 | 28 | 5.2 | 0.0 | 0.00 | 0.00 | 0.00 | 93 | 1010.5 |
| 20260906153529 | 66 | 59 | 4.3 | 0.0 | 0.00 | 0.00 | 0.00 | 92 | 1010.6 |
| 20260906153031 | 66 | 327 | 6.1 | 0.0 | 0.00 | 0.00 | 0.00 | 92 | 1010.7 |
| 20260906152528 | 67 | 38 | 6.1 | 0.0 | 0.00 | 0.00 | 0.00 | 92 | 1010.3 |
| 20260906152028 | 67 | 46 | 5.2 | 0.0 | 0.00 | 0.00 | 0.00 | 92 | 1010.4 |
| 20260906151531 | 67 | 313 | 4.3 | 0.0 | 0.00 | 0.00 | 0.00 | 92 | 1010.6 |
| 20260906151028 | 66 | 324 | 3.5 | 0.0 | 0.00 | 0.00 | 0.00 | 92 | 1010.8 |
| 20260906150528 | 66 | 310 | 4.3 | 0.0 | 0.00 | 0.00 | 0.00 | 93 | 1010.8 |
| 20260906150027 | 66 | 5 | 4.3 | 0.0 | 0.00 | 0.00 | 0.00 | 93 | 1010.4 |
| 20260906145527 | 66 | 51 | 5.2 | 0.0 | 0.00 | 0.00 | 0.00 | 93 | 1010.7 |
| 20260906145029 | 66 | 26 | 6.1 | 0.0 | 0.00 | 0.00 | 0.00 | 93 | 1010.4 |
| 20260906144527 | 66 | 71 | 5.2 | 0.0 | 0.00 | 0.00 | 0.00 | 93 | 1010.6 |
| 20260906144027 | 66 | 61 | 7.0 | 0.0 | 0.00 | 0.00 | 0.00 | 93 | 1010.9 |
| 20260906143527 | 66 | 360 | 8.7 | 0.0 | 0.00 | 0.00 | 0.00 | 93 | 1010.6 |
| 20260906143026 | 66 | 36 | 6.1 | 0.0 | 0.00 | 0.00 | 0.00 | 93 | 1010.7 |
| 20260906142526 | 66 | 18 | 5.2 | 0.0 | 0.00 | 0.00 | 0.00 | 93 | 1011.7 |
| 20260906142029 | 66 | 340 | 4.3 | 0.0 | 0.00 | 0.00 | 0.00 | 93 | 1011.8 |
| 20260906141526 | 66 | 80 | 5.2 | 0.0 | 0.00 | 0.00 | 0.00 | 93 | 1011.7 |
| 20260906141026 | 66 | 329 | 4.3 | 0.0 | 0.00 | 0.00 | 0.00 | 93 | 1011.8 |
| 20260906140528 | 66 | 269 | 5.2 | 0.0 | 0.00 | 0.00 | 0.00 | 94 | 1011.7 |
| 20260906140026 | 66 | 72 | 7.8 | 0.0 | 0.00 | 0.00 | 0.00 | 94 | 1011.0 |
| 20260906135526 | 65 | 28 | 8.7 | 0.0 | 0.00 | 0.00 | 0.00 | 94 | 1010.2 |
| 20260906135025 | 65 | 49 | 9.6 | 0.0 | 0.00 | 0.00 | 0.00 | 94 | 1009.9 |
| 20260906134531 | 65 | 34 | 9.6 | 0.0 | 0.00 | 0.00 | 0.00 | 94 | 1009.6 |
| 20260906134023 | 65 | 23 | 7.0 | 0.0 | 0.00 | 0.00 | 0.00 | 94 | 1009.8 |
| 20260906133523 | 65 | 28 | 7.0 | 0.0 | 0.00 | 0.00 | 0.00 | 94 | 1010.2 |
| 20260906133023 | 65 | 34 | 7.8 | 0.0 | 0.00 | 0.00 | 0.00 | 94 | 1010.2 |
| 20260906132522 | 65 | 42 | 7.0 | 0.0 | 0.00 | 0.00 | 0.00 | 94 | 1010.2 |
| 20260906132023 | 65 | 12 | 5.2 | 0.0 | 0.00 | 0.00 | 0.00 | 94 | 1010.5 |
| 20260906131523 | 65 | 18 | 3.5 | 0.0 | 0.00 | 0.00 | 0.00 | 94 | 1010.8 |
| 20260906131021 | 65 | 331 | 2.6 | 0.0 | 0.00 | 0.00 | 0.00 | 94 | 1011.4 |
| 20260906130521 | 65 | 312 | 2.6 | 0.0 | 0.00 | 0.00 | 0.00 | 95 | 1011.7 |
| 20260906130025 | 64 | 307 | 2.6 | 0.0 | 0.00 | 0.00 | 0.00 | 95 | 1011.8 |
| 20260906125522 | 64 | 275 | 2.6 | 0.0 | 0.00 | 0.00 | 0.00 | 95 | 1012.0 |
| 20260906125022 | 64 | 275 | 3.5 | 0.0 | 0.00 | 0.00 | 0.00 | 95 | 1012.1 |
| 20260906124520 | 63 | 268 | 3.5 | 0.0 | 0.00 | 0.00 | 0.00 | 94 | 1012.2 |
| 20260906124021 | 63 | 306 | 4.3 | 0.0 | 0.00 | 0.00 | 0.00 | 94 | 1012.2 |
| 20260906123520 | 63 | 271 | 4.3 | 0.0 | 0.00 | 0.00 | 0.00 | 94 | 1012.3 |
| 20260906123020 | 63 | 281 | 3.5 | 0.0 | 0.00 | 0.00 | 0.00 | 95 | 1012.2 |
| 20260906122521 | 63 | 286 | 3.5 | 0.0 | 0.00 | 0.00 | 0.00 | 95 | 1012.2 |
| 20260906122022 | 63 | 310 | 3.5 | 0.0 | 0.00 | 0.00 | 0.00 | 95 | 1011.8 |
| 20260906121522 | 63 | 5 | 2.6 | 0.0 | 0.00 | 0.00 | 0.00 | 95 | 1011.5 |
| 20260906121023 | 62 | 234 | 0.9 | 0.0 | 0.00 | 0.00 | 0.00 | 95 | 1011.8 |
| 20260906120522 | 62 | 185 | 0.9 | 0.0 | 0.00 | 0.00 | 0.00 | 94 | 1011.9 |
| 20260906120019 | 62 | 185 | 0.9 | 0.0 | 0.00 | 0.00 | 0.00 | 94 | 1011.9 |
| 20260906115520 | 61 | 185 | 0.0 | 0.0 | 0.00 | 0.00 | 0.00 | 94 | 1012.3 |
| 20260906115021 | 61 | 185 | 0.0 | 0.0 | 0.00 | 0.00 | 0.00 | 94 | 1012.3 |
| 20260906114518 | 61 | 185 | 0.9 | 0.0 | 0.00 | 0.00 | 0.00 | 94 | 1012.2 |
| 20260906114017 | 61 | 185 | 1.7 | 0.0 | 0.00 | 0.00 | 0.00 | 94 | 1012.0 |
| 20260906113517 | 61 | 317 | 2.6 | 0.0 | 0.00 | 0.00 | 0.00 | 94 | 1011.8 |
| 20260906113017 | 61 | 317 | 1.7 | 0.0 | 0.00 | 0.00 | 0.00 | 94 | 1011.6 |
| 20260906112516 | 60 | 306 | 0.9 | 0.0 | 0.00 | 0.00 | 0.00 | 94 | 1011.6 |
| 20260906112016 | 60 | 306 | 0.9 | 0.0 | 0.00 | 0.00 | 0.00 | 93 | 1011.9 |
| 20260906111516 | 60 | 306 | 1.7 | 0.0 | 0.00 | 0.00 | 0.00 | 93 | 1011.8 |
| 20260906111015 | 61 | 306 | 2.6 | 0.0 | 0.00 | 0.00 | 0.00 | 94 | 1011.8 |
| 20260906110517 | 61 | 306 | 2.6 | 0.0 | 0.00 | 0.00 | 0.00 | 94 | 1011.5 |
| 20260906110015 | 60 | 306 | 0.9 | 0.0 | 0.00 | 0.00 | 0.00 | 94 | 1011.7 |
| 20260906105514 | 58 | 306 | 0.9 | 0.0 | 0.00 | 0.00 | 0.00 | 93 | 1011.7 |
| 20260906105015 | 59 | 306 | 0.9 | 0.0 | 0.00 | 0.00 | 0.00 | 93 | 1011.7 |
| 20260906104513 | 58 | 306 | 0.9 | 0.0 | 0.00 | 0.00 | 0.00 | 93 | 1011.5 |
| 20260906104013 | 58 | 306 | 0.0 | 0.0 | 0.00 | 0.00 | 0.00 | 93 | 1011.5 |
| 20260906103512 | 58 | 306 | 0.0 | 0.0 | 0.00 | 0.00 | 0.00 | 92 | 1011.3 |
| 20260906103012 | 58 | 306 | 0.9 | 0.0 | 0.00 | 0.00 | 0.00 | 92 | 1011.3 |
| 20260906102513 | 59 | 306 | 0.9 | 0.0 | 0.00 | 0.00 | 0.00 | 92 | 1011.0 |
| 20260906102011 | 59 | 306 | 0.0 | 0.0 | 0.00 | 0.00 | 0.00 | 92 | 1011.0 |
| 20260906101510 | 59 | 306 | 0.0 | 0.0 | 0.00 | 0.00 | 0.00 | 91 | 1010.9 |
| 20260906101008 | 60 | 306 | 0.0 | 0.0 | 0.00 | 0.00 | 0.00 | 92 | 1010.9 |
| 20260906100508 | 60 | 306 | 0.0 | 0.0 | 0.00 | 0.00 | 0.00 | 92 | 1010.8 |
| 20260906100008 | 61 | 307 | 0.0 | 0.0 | 0.00 | 0.00 | 0.00 | 93 | 1010.8 |
| 20260906095507 | 60 | 307 | 0.0 | 0.0 | 0.00 | 0.00 | 0.00 | 93 | 1010.7 |
| 20260906095008 | 60 | 307 | 0.0 | 0.0 | 0.00 | 0.00 | 0.00 | 93 | 1010.7 |
| 20260906094507 | 60 | 307 | 0.9 | 0.0 | 0.00 | 0.00 | 0.00 | 91 | 1010.7 |
| 20260906094007 | 61 | 307 | 0.9 | 0.0 | 0.00 | 0.00 | 0.00 | 91 | 1010.8 |
| 20260906093505 | 62 | 307 | 0.0 | 0.0 | 0.00 | 0.00 | 0.00 | 92 | 1010.8 |
| 20260906093012 | 62 | 308 | 0.0 | 0.0 | 0.00 | 0.00 | 0.00 | 92 | 1010.9 |
| 20260906092507 | 62 | 308 | 0.0 | 0.0 | 0.00 | 0.00 | 0.00 | 90 | 1010.9 |
| 20260906092002 | 63 | 308 | 0.9 | 0.0 | 0.00 | 0.00 | 0.00 | 91 | 1011.0 |
| 20260906091502 | 63 | 308 | 0.9 | 0.0 | 0.00 | 0.00 | 0.00 | 92 | 1010.8 |
| 20260906091002 | 63 | 308 | 0.9 | 0.0 | 0.00 | 0.00 | 0.00 | 92 | 1010.7 |
| 20260906090501 | 63 | 308 | 0.0 | 0.0 | 0.00 | 0.00 | 0.00 | 91 | 1010.7 |
| 20260906090002 | 63 | 308 | 0.0 | 0.0 | 0.00 | 0.00 | 0.00 | 92 | 1010.6 |
| 20260906085603 | 63 | 308 | 0.0 | 0.0 | 0.00 | 0.00 | 0.00 | 91 | 1010.7 |
| 20260906084559 | 63 | 308 | 0.9 | 0.0 | 0.00 | 0.00 | 0.00 | 91 | 1010.7 |
| 20260906084058 | 64 | 308 | 0.9 | 0.0 | 0.00 | 0.00 | 0.00 | 91 | 1010.7 |
| 20260906083557 | 64 | 308 | 0.9 | 0.0 | 0.00 | 0.00 | 0.00 | 91 | 1010.7 |
| 20260906083057 | 64 | 308 | 0.9 | 0.0 | 0.00 | 0.00 | 0.00 | 90 | 1010.8 |
| 20260906082555 | 64 | 308 | 0.9 | 0.0 | 0.00 | 0.00 | 0.00 | 90 | 1010.8 |
| 20260906082054 | 65 | 308 | 1.7 | 0.0 | 0.00 | 0.00 | 0.00 | 90 | 1010.8 |
| 20260906081553 | 65 | 308 | 2.6 | 0.0 | 0.00 | 0.00 | 0.00 | 90 | 1010.9 |
| 20260906081052 | 66 | 308 | 3.5 | 0.0 | 0.00 | 0.00 | 0.00 | 90 | 1011.0 |
| 20260906080552 | 66 | 302 | 3.5 | 0.0 | 0.00 | 0.00 | 0.00 | 91 | 1011.1 |
| 20260906080057 | 65 | 40 | 2.6 | 0.0 | 0.00 | 0.00 | 0.00 | 90 | 1011.1 |
| 20260906075550 | 65 | 62 | 3.5 | 0.0 | 0.00 | 0.00 | 0.00 | 90 | 1011.2 |
| 20260906074557 | 66 | 62 | 3.5 | 0.0 | 0.00 | 0.00 | 0.00 | 89 | 1011.2 |
| 20260906074049 | 66 | 63 | 2.6 | 0.0 | 0.00 | 0.00 | 0.00 | 89 | 1011.2 |
| 20260906073549 | 67 | 63 | 1.7 | 0.0 | 0.00 | 0.00 | 0.00 | 89 | 1011.3 |
| 20260906073049 | 67 | 63 | 1.7 | 0.0 | 0.00 | 0.00 | 0.00 | 89 | 1011.3 |
| 20260906072552 | 67 | 63 | 1.7 | 0.0 | 0.00 | 0.00 | 0.00 | 89 | 1011.3 |
| 20260906072049 | 67 | 63 | 1.7 | 0.0 | 0.00 | 0.00 | 0.00 | 89 | 1011.3 |
| 20260906071550 | 67 | 63 | 2.6 | 0.0 | 0.00 | 0.00 | 0.00 | 89 | 1011.2 |
| 20260906071049 | 67 | 63 | 2.6 | 0.0 | 0.00 | 0.00 | 0.00 | 90 | 1011.3 |
| 20260906070548 | 66 | 20 | 1.7 | 0.0 | 0.00 | 0.00 | 0.00 | 88 | 1011.4 |
| 20260906070047 | 67 | 17 | 0.9 | 0.0 | 0.00 | 0.00 | 0.00 | 88 | 1011.4 |
| 20260906065547 | 67 | 17 | 0.9 | 0.0 | 0.00 | 0.00 | 0.00 | 88 | 1011.3 |
| 20260906064546 | 67 | 17 | 1.7 | 0.0 | 0.00 | 0.00 | 0.00 | 88 | 1011.3 |
| 20260906064046 | 68 | 17 | 2.6 | 0.0 | 0.00 | 0.00 | 0.00 | 87 | 1011.3 |
| 20260906063545 | 68 | 17 | 2.6 | 0.0 | 0.00 | 0.00 | 0.00 | 87 | 1011.3 |
| 20260906063045 | 68 | 17 | 2.6 | 0.0 | 0.00 | 0.00 | 0.00 | 88 | 1011.3 |
| 20260906062544 | 68 | 318 | 1.7 | 0.0 | 0.00 | 0.00 | 0.00 | 88 | 1011.5 |
| 20260906062045 | 68 | 317 | 1.7 | 0.0 | 0.00 | 0.00 | 0.00 | 87 | 1011.5 |
| 20260906061544 | 68 | 317 | 1.7 | 0.0 | 0.00 | 0.00 | 0.00 | 87 | 1011.5 |
| 20260906061046 | 68 | 317 | 0.9 | 0.0 | 0.00 | 0.00 | 0.00 | 87 | 1011.5 |
| 20260906060543 | 68 | 317 | 0.9 | 0.0 | 0.00 | 0.00 | 0.00 | 87 | 1011.5 |
| 20260906060055 | 68 | 317 | 1.7 | 0.0 | 0.00 | 0.00 | 0.00 | 87 | 1011.5 |
| 20260906055545 | 68 | 317 | 2.6 | 0.0 | 0.00 | 0.00 | 0.00 | 85 | 1011.6 |
| 20260906054541 | 69 | 298 | 3.5 | 0.0 | 0.00 | 0.00 | 0.00 | 86 | 1011.5 |
| 20260906054040 | 69 | 309 | 3.5 | 0.0 | 0.00 | 0.00 | 0.00 | 85 | 1011.4 |
| 20260906053540 | 69 | 304 | 1.7 | 0.0 | 0.00 | 0.00 | 0.00 | 85 | 1011.4 |
| 20260906053038 | 70 | 15 | 1.7 | 0.0 | 0.00 | 0.00 | 0.00 | 84 | 1011.4 |
| 20260906052543 | 70 | 62 | 2.6 | 0.0 | 0.00 | 0.00 | 0.00 | 84 | 1011.4 |
| 20260906052037 | 70 | 62 | 3.5 | 0.0 | 0.00 | 0.00 | 0.00 | 84 | 1011.3 |
| 20260906051542 | 70 | 62 | 4.3 | 0.0 | 0.00 | 0.00 | 0.00 | 84 | 1011.3 |
| 20260906051040 | 70 | 66 | 4.3 | 0.0 | 0.00 | 0.00 | 0.00 | 84 | 1011.3 |
| 20260906050537 | 70 | 63 | 5.2 | 0.0 | 0.00 | 0.00 | 0.00 | 84 | 1011.3 |
| 20260906050037 | 70 | 53 | 6.1 | 0.0 | 0.00 | 0.00 | 0.00 | 84 | 1011.3 |
| 20260906045538 | 70 | 49 | 6.1 | 0.0 | 0.00 | 0.00 | 0.00 | 83 | 1011.3 |
| 20260906044537 | 70 | 55 | 5.2 | 0.0 | 0.00 | 0.00 | 0.00 | 83 | 1011.3 |
| 20260906044037 | 70 | 44 | 5.2 | 0.0 | 0.00 | 0.00 | 0.00 | 82 | 1011.3 |
| 20260906043535 | 71 | 36 | 5.2 | 0.0 | 0.00 | 0.00 | 0.00 | 81 | 1011.4 |
| 20260906043036 | 71 | 40 | 5.2 | 0.0 | 0.00 | 0.00 | 0.00 | 81 | 1011.3 |
| 20260906042533 | 71 | 42 | 5.2 | 0.0 | 0.00 | 0.00 | 0.00 | 80 | 1011.4 |
| 20260906042032 | 71 | 46 | 5.2 | 0.0 | 0.00 | 0.00 | 0.00 | 80 | 1011.4 |
| 20260906041540 | 72 | 42 | 5.2 | 0.0 | 0.00 | 0.00 | 0.00 | 79 | 1011.3 |
| 20260906041031 | 72 | 30 | 6.1 | 0.0 | 0.00 | 0.00 | 0.00 | 79 | 1011.4 |
| 20260906040530 | 72 | 21 | 6.1 | 0.0 | 0.00 | 0.00 | 0.00 | 79 | 1011.4 |
| 20260906040033 | 72 | 17 | 6.1 | 0.0 | 0.00 | 0.00 | 0.00 | 79 | 1011.5 |
| 20260906035530 | 72 | 23 | 6.1 | 0.0 | 0.00 | 0.00 | 0.00 | 78 | 1011.5 |
| 20260906034531 | 72 | 28 | 6.1 | 0.0 | 0.00 | 0.00 | 0.00 | 78 | 1011.5 |
| 20260906034034 | 72 | 11 | 6.1 | 0.0 | 0.00 | 0.00 | 0.00 | 78 | 1011.4 |
| 20260906033527 | 72 | 5 | 6.1 | 0.0 | 0.00 | 0.00 | 0.00 | 77 | 1011.3 |
| 20260906033030 | 73 | 5 | 6.1 | 0.0 | 0.00 | 0.00 | 0.00 | 77 | 1011.4 |
| 20260906032526 | 73 | 14 | 6.1 | 0.0 | 0.00 | 0.00 | 0.00 | 77 | 1011.4 |
| 20260906032026 | 73 | 17 | 6.1 | 0.0 | 0.00 | 0.00 | 0.00 | 76 | 1011.5 |
| 20260906031526 | 73 | 18 | 6.1 | 0.0 | 0.00 | 0.00 | 0.00 | 76 | 1011.4 |
| 20260906031028 | 73 | 22 | 6.1 | 0.0 | 0.00 | 0.00 | 0.00 | 76 | 1011.5 |
| 20260906030526 | 73 | 10 | 6.1 | 0.0 | 0.00 | 0.00 | 0.00 | 75 | 1011.5 |
| 20260906030026 | 74 | 5 | 7.0 | 0.0 | 0.00 | 0.00 | 0.00 | 75 | 1011.5 |
| 20260906025525 | 74 | 355 | 7.8 | 0.0 | 0.00 | 0.00 | 0.00 | 74 | 1011.6 |
| 20260906024526 | 74 | 351 | 7.0 | 0.0 | 0.00 | 0.00 | 0.00 | 74 | 1011.4 |
| 20260906024027 | 74 | 360 | 7.0 | 0.0 | 0.00 | 0.00 | 0.00 | 74 | 1011.3 |
| 20260906023526 | 74 | 5 | 5.2 | 0.0 | 0.00 | 0.00 | 0.00 | 73 | 1011.3 |
| 20260906023024 | 74 | 355 | 5.2 | 0.0 | 0.00 | 0.00 | 0.00 | 73 | 1011.2 |
| 20260906022525 | 74 | 344 | 5.2 | 0.0 | 0.00 | 0.00 | 0.00 | 73 | 1011.2 |
| 20260906022028 | 74 | 317 | 4.3 | 0.0 | 0.00 | 0.00 | 0.00 | 72 | 1011.1 |
| 20260906021525 | 74 | 327 | 4.3 | 0.0 | 0.00 | 0.00 | 0.00 | 72 | 1011.1 |
| 20260906021026 | 74 | 335 | 4.3 | 0.0 | 0.00 | 0.00 | 0.00 | 71 | 1011.1 |
| 20260906020524 | 74 | 355 | 4.3 | 0.0 | 0.00 | 0.00 | 0.00 | 71 | 1011.0 |
| 20260906020023 | 75 | 336 | 4.3 | 0.0 | 0.00 | 0.00 | 0.00 | 70 | 1010.9 |
| 20260906015522 | 75 | 339 | 4.3 | 0.0 | 0.00 | 0.00 | 0.00 | 70 | 1010.9 |
| 20260906014524 | 76 | 330 | 4.3 | 0.0 | 0.00 | 0.00 | 0.00 | 68 | 1010.6 |
| 20260906014021 | 76 | 342 | 4.3 | 0.0 | 0.00 | 0.00 | 0.00 | 67 | 1010.6 |
| 20260906013520 | 77 | 348 | 5.2 | 0.0 | 0.00 | 0.00 | 0.00 | 66 | 1010.5 |
| 20260906013020 | 77 | 328 | 4.3 | 0.0 | 0.00 | 0.00 | 0.00 | 65 | 1010.5 |
| 20260906012518 | 78 | 321 | 3.5 | 0.0 | 0.00 | 0.00 | 0.00 | 64 | 1010.3 |
| 20260906012019 | 78 | 313 | 3.5 | 0.0 | 0.00 | 0.00 | 0.00 | 63 | 1010.2 |
| 20260906011518 | 79 | 327 | 3.5 | 0.0 | 0.00 | 0.00 | 0.00 | 62 | 1010.1 |
| 20260906011017 | 79 | 320 | 4.3 | 0.0 | 0.00 | 0.00 | 0.00 | 62 | 1010.0 |
| 20260906010517 | 80 | 333 | 4.3 | 0.0 | 0.00 | 0.00 | 0.00 | 61 | 1009.9 |
| 20260906010017 | 80 | 322 | 5.2 | 0.0 | 0.00 | 0.00 | 0.00 | 61 | 1009.8 |
| 20260906005517 | 80 | 311 | 5.2 | 0.0 | 0.00 | 0.00 | 0.00 | 61 | 1009.8 |
| 20260906004516 | 81 | 336 | 6.1 | 0.0 | 0.00 | 0.00 | 0.00 | 60 | 1009.7 |
| 20260906004016 | 81 | 312 | 6.1 | 0.0 | 0.00 | 0.00 | 0.00 | 59 | 1009.7 |
| 20260906003516 | 81 | 335 | 6.1 | 0.0 | 0.00 | 0.00 | 0.00 | 59 | 1009.7 |
| 20260906003016 | 81 | 327 | 6.1 | 0.0 | 0.00 | 0.00 | 0.00 | 59 | 1009.7 |
| 20260906002515 | 82 | 11 | 6.1 | 0.0 | 0.00 | 0.00 | 0.00 | 58 | 1009.8 |
| 20260906002016 | 81 | 336 | 6.1 | 0.0 | 0.00 | 0.00 | 0.00 | 58 | 1009.7 |
| 20260906001516 | 81 | 360 | 7.0 | 0.0 | 0.00 | 0.00 | 0.00 | 59 | 1009.7 |
| 20260906001015 | 81 | 11 | 7.8 | 0.0 | 0.00 | 0.00 | 0.00 | 59 | 1009.7 |
| 20260906000518 | 82 | 360 | 7.8 | 0.0 | 0.00 | 0.00 | 0.00 | 59 | 1009.7 |
| 20260906000016 | 82 | 360 | 7.0 | 0.0 | 0.00 | 0.00 | 0.00 | 58 | 1009.7 |
| 20260905235516 | 82 | 355 | 7.0 | 0.0 | 0.00 | 0.00 | 0.00 | 58 | 1009.7 |
| 20260905234516 | 83 | 20 | 7.0 | 0.0 | 0.00 | 0.00 | 0.00 | 57 | 1009.6 |
| 20260905234019 | 83 | 5 | 7.0 | 0.0 | 0.00 | 0.00 | 0.00 | 57 | 1009.4 |
| 20260905233516 | 83 | 351 | 7.8 | 0.0 | 0.00 | 0.00 | 0.00 | 57 | 1009.3 |
| 20260905233016 | 83 | 355 | 8.7 | 0.0 | 0.00 | 0.00 | 0.00 | 57 | 1009.2 |
| 20260905232516 | 83 | 355 | 8.7 | 0.0 | 0.00 | 0.00 | 0.00 | 57 | 1009.2 |
| 20260905232016 | 83 | 24 | 7.8 | 0.0 | 0.00 | 0.00 | 0.00 | 56 | 1009.2 |
| 20260905231516 | 84 | 355 | 7.0 | 0.0 | 0.00 | 0.00 | 0.00 | 56 | 1009.3 |
| 20260905231015 | 84 | 336 | 7.8 | 0.0 | 0.00 | 0.00 | 0.00 | 56 | 1009.2 |
| 20260905230515 | 84 | 360 | 7.8 | 0.0 | 0.00 | 0.00 | 0.00 | 56 | 1009.1 |
| 20260905230016 | 84 | 355 | 7.8 | 0.0 | 0.00 | 0.00 | 0.00 | 56 | 1009.0 |
| 20260905225514 | 84 | 5 | 7.8 | 0.0 | 0.00 | 0.00 | 0.00 | 56 | 1008.8 |
| 20260905224519 | 84 | 360 | 7.8 | 0.0 | 0.00 | 0.00 | 0.00 | 56 | 1008.9 |
| 20260905224013 | 84 | 30 | 7.8 | 0.0 | 0.00 | 0.00 | 0.00 | 55 | 1009.1 |
| 20260905223513 | 85 | 26 | 7.0 | 0.0 | 0.00 | 0.00 | 0.00 | 55 | 1009.0 |
| 20260905223014 | 85 | 5 | 6.1 | 0.0 | 0.00 | 0.00 | 0.00 | 55 | 1009.0 |
| 20260905222517 | 85 | 302 | 6.1 | 0.0 | 0.00 | 0.00 | 0.00 | 55 | 1009.1 |
| 20260905222013 | 86 | 325 | 6.1 | 0.0 | 0.00 | 0.00 | 0.00 | 53 | 1009.1 |
| 20260905221529 | 85 | 339 | 6.1 | 0.0 | 0.00 | 0.00 | 0.00 | 55 | 1009.1 |
| 20260905221014 | 85 | 329 | 7.0 | 0.0 | 0.00 | 0.00 | 0.00 | 55 | 1009.2 |
| 20260905220513 | 85 | 355 | 7.8 | 0.0 | 0.00 | 0.00 | 0.00 | 55 | 1009.2 |
| 20260905220013 | 85 | 13 | 7.8 | 0.0 | 0.00 | 0.00 | 0.00 | 55 | 1009.2 |
| 20260905215513 | 85 | 348 | 7.0 | 0.0 | 0.00 | 0.00 | 0.00 | 55 | 1009.3 |